Wind_Speed
17 19 21 19 18 18 16 13 12 12 11 9 9 10 9 9 8 7 7 7 7 7
19 16 21 18 18 19 21 18 17 15 12 12 13 12 11 10 11 11 10 9 8 8
16 16 13 21 16 18 12 15 22 21 19 19 17 15 14 14 11 13 12 10 9 9
20 18 15 15 16 14 12 13 18 19 17 16 16 16 16 16 14 13 15 12 10 10
19 19 19 16 13 13 13 13 13 12 14 15 15 15 19 19 18 16 14 15 14 13
17 16 14 13 12 12 13 10 9 10 10 10 12 13 13 18 18 17 12 11 6 6
18 14 13 11 11 10 9 7 6 5 7 10 11 10 11 9 9 12 11 9 6 6
13 12 12 12 9 10 9 7 4 4 3 2 5 7 8 9 8 10 9 8 7 5
16 11 11 11 9 7 5 5 5 4 5 5 3 1 4 7 5 5 7 8 5 4
15 10 8 6 5 3 3 3 3 4 5 4 3 6 4 8 6 9 9 9 7 6
14 11 8 6 5 4 5 4 4 4 4 3 3 3 1 3 7 9 7 7 8 8
12 9 5 5 6 6 4 1 1 3 3 2 5 1 2 4 7 10 10 9 8 7
13 17 13 10 7 4 2 3 4 6 4 3 3 3 4 6 7 9 8 6 5 2
12 11 11 11 7 6 7 6 6 7 6 5 5 6 7 7 6 8 7 4 5 4
Wind_Direction
193 195 186 187 194 193 199 203 195 197 201 212 222 225 239 238 247 253 250 260 268 280
186 182 191 201 202 201 215 215 209 203 205 208 213 235 249 247 238 238 241 263 259 268
186 190 201 202 183 184 184 190 204 201 202 209 222 226 229 239 243 239 238 237 247 253
199 205 211 193 203 209 203 201 189 197 206 218 222 228 233 241 242 244 248 239 241 244
199 204 204 203 196 202 213 200 208 210 217 223 228 241 239 239 235 242 234 225 249 264
198 197 193 202 206 203 194 194 209 218 225 231 242 246 248 241 236 235 223 213 209 176
197 195 195 193 200 188 187 179 175 209 240 254 259 257 250 251 234 218 201 193 219 228
183 187 176 167 177 148 163 172 197 225 220 227 239 245 260 253 242 211 212 196 198 217
112 109 123 125 133 164 179 202 239 283 305 309 324 355 262 258 207 207 196 176 169 168
119 126 126 142 174 181 222 245 273 301 298 302 335 13 329 272 210 173 159 154 162 183
135 142 152 177 202 225 264 291 307 323 334 359 12 323 143 150 168 149 140 152 173 179
150 160 181 231 235 231 240 261 12 50 70 73 110 20 87 154 141 128 120 124 136 159
203 201 193 191 187 174 142 104 98 113 120 126 132 123 143 139 135 130 125 116 127 140
184 185 181 176 167 152 137 130 128 125 128 137 144 144 145 140 140 141 144 137 104 72
Height
803 805 807 809 812 814 815 817 818 820 823 825 826 828 829 830 830 829 830 830 830 830
802 804 805 806 809 810 812 814 816 817 819 822 824 826 828 828 828 828 828 829 830 830
800 802 804 805 807 808 809 810 813 815 817 820 822 823 824 825 825 825 825 826 827 827
797 800 802 803 804 806 807 808 810 813 815 818 819 821 821 822 823 823 823 824 824 824
794 796 798 801 803 805 807 809 811 813 813 815 816 817 819 819 819 819 819 820 821 822
791 793 795 798 801 803 804 806 808 810 811 812 814 814 814 814 815 814 814 816 817 818
788 791 794 796 800 803 803 804 806 808 810 811 811 812 812 812 812 812 812 812 815 816
788 791 794 795 799 801 801 802 804 806 807 807 807 807 808 809 810 810 811 811 813 815
788 794 796 796 798 801 801 801 802 805 807 808 807 806 807 808 809 809 809 810 813 815
784 795 797 798 799 801 803 802 802 804 806 806 807 806 807 807 809 809 809 810 811 815
783 790 795 799 800 803 804 804 804 806 807 807 807 807 808 807 808 809 810 810 812 813
784 790 796 798 801 802 803 802 802 804 806 808 808 809 808 808 809 810 810 811 813 814
786 783 788 795 798 800 802 802 804 804 807 808 809 809 809 809 810 810 812 813 813 814
781 788 791 794 796 798 801 803 806 807 808 808 809 810 811 811 811 812 813 814 814 814